Wall of Fame

Het Mysterie van de Haven

Groepsnaam Tijd over Aantal hints
1 Kluitland 01:46:16 3
2 Unicorns 01:13:18 0
3 Zegwat 01:11:13 6
4 Out of the Box 01:10:45 0
5 Malestein 01:10:20 0
6 Team 414 01:09:44 3
7 Bijna sexy 01:09:12 0
8 Toevankjes 01:08:34 1
9 Jut en Juul 01:08:32 1
10 Th'Eltons 01:07:44 0
11 Majomiri 01:07:15 0
12 autobuddys 01:06:54 0
13 Wollys 01:06:24 0
14 Vogelbuurt 01:05:09 0
15 Blekbal 01:04:20 4
16 Bestuur Panacea 2018 01:03:41 0
17 De mannen Dalfsen 01:03:39 0
18 Vivino's 01:02:35 0
19 Wilde jongelingen 01:01:14 0
20 Da potato family 01:00:30 3
21 Mathaak 01:00:29 0
22 De Flitsmeisters 01:00:23 1
23 Mulder en co 00:59:57 0
24 Havenmeesters van de matestraat 00:59:39 0
25 SmartBarth 00:59:09 0
26 TOG op pad 00:58:30 0
27 Zeeslagje 00:56:42 0
28 Bull 00:56:18 0
29 Bouma’s 00:55:30 0
30 De Noorderlingen 2 00:55:27 2
31 The Turning Bitches 00:55:15 0
32 Tantalus 00:54:40 4
33 De withaartjes 00:54:37 0
34 Jozuahaaltdesnacks 00:54:18 0
35 Spruitjes 00:54:06 1
36 NYE_Toppers! 00:53:03 0
37 DeKraaien 00:52:45 0
38 Gilse Club 00:52:27 3
39 Bruggies 00:52:04 2
40 MAK Search Team 00:51:54 1
41 VEM 00:51:36 2
42 The Black Purrrr 00:51:21 3
43 Uildriks 00:51:15 0
44 De Streek 00:50:50 1
45 Marina's Bultjes 00:50:37 0
46 Rijn 00:49:57 3
47 Commissaris Blauw 32 00:49:54 0
48 Casper&Cheyenne 00:49:50 0
49 De Leo’s 00:49:40 0
50 Clown Kees 00:49:35 0
51 Van Essen 00:49:17 2
52 Schoorlsafari 00:49:04 0
53 De wilde Vaart 00:48:42 0
54 Teddje 00:48:10 2
55 Groenevelt 00:48:07 0
56 Bolk 00:48:03 0
57 The GinkelSquad 00:47:47 0
58 Spijkerrevanche 00:47:45 7
59 zalk 00:46:57 2
60 Team Rijnsburg 00:46:50 0
61 Sinterkerstennieuw 00:46:49 0
62 Tukkers Nieland 00:46:41 1
63 GreenDucks 00:46:32 2
64 The Escapistaches 00:46:30 0
65 De vochtige Ari’s 00:46:25 0
66 Doarseveld 00:46:14 3
67 De avocado's 00:46:01 1
68 De Feunen 00:45:59 1
69 FC RISC 00:45:56 0
70 De Engeltjes 00:45:45 3
71 Kroese 00:45:36 0
72 Hagen 00:45:26 0
73 Vinkentroep 00:45:07 0
74 Hazelnootjes 00:45:06 0
75 De Nachtbrakers 00:44:54 1
76 joGoJoGo 00:44:43 1
77 HoogeVenlo 00:44:39 2
78 Hsj 00:44:29 10
79 TeamXBeks 00:44:25 5
80 M&M 00:43:52 3
81 De van der Bentjes 00:43:50 7
82 te pakk'n 00:43:47 0
83 Met z'n biertjes 00:43:27 0
84 Boekenpootje 00:43:18 1
85 De Akkermannen 00:43:13 1
86 De Loser Champignons 00:43:12 2
87 Bruintjes 00:43:05 2
88 Flying mountains 00:42:49 0
89 Mark&Simone 00:42:47 0
90 Wenterse genieters 00:42:42 1
91 De drie koffieriers 00:42:42 1
92 Zijlmaatjes 00:42:27 4
93 Koeienlovers 00:41:43 2
94 De dikke bankzitters 00:41:42 4
95 Bungalow Xxx 00:41:41 0
96 De wijsneuzen 00:41:29 1
97 Caljé 00:41:20 5
98 Glas 00:41:12 1
99 Groepje 00:40:58 2
100 MvAVermaak.nl 00:40:53 1
101 De Strikwerda's 00:40:52 3
102 Team Detective 00:40:46 0
103 Paashaas 00:40:31 5
104 Remida 00:40:08 2
105 Familyfuntime 00:40:04 1
106 Bro’s before ho’s 00:40:03 0
107 The Jaggermen 00:39:55 0
108 ThoJo 00:39:47 2
109 Flanmika Rijssen 00:39:21 0
110 SiJiSen 00:39:15 1
111 zeelsterhut 00:39:14 0
112 De sjeezers 00:39:11 1
113 Witte Wieven 00:39:10 0
114 Hokkie's 00:39:09 1
115 Goutier 00:38:48 1
116 Nijzinkbende 00:38:47 6
117 MenM 00:38:39 0
118 ReSuNo 00:38:32 0
119 Hamse gezelligheid 00:38:22 2
120 hartogjes 00:38:15 2
121 Keyless 00:37:57 0
122 Chicks b4 dicks 00:37:39 1
123 Kroontjes 00:37:35 0
124 De ijsvogeltjes 715 00:37:21 0
125 Team de Vrueh 00:36:54 3
126 Framily 00:36:50 3
127 TeamTeunis 00:36:47 2
128 Boevee 00:36:36 3
129 Doppers 00:36:35 4
130 ArLi 00:36:34 2
131 JurreKnurre 00:36:29 2
132 De Dekkertjes 00:36:11 1
133 Captains Hoekstra 00:36:01 0
134 Newcourts 00:36:01 3
135 Louise & Mike 00:35:54 10
136 De waalie 00:35:52 3
137 De Hurms 00:35:38 1
138 De domme koeien 00:35:36 0
139 GBMans 00:35:32 1
140 Huis440 00:35:28 0
141 De Knulletjes 00:35:18 4
142 Schapenkoppen 00:35:06 2
143 Bouwhuisjes+oma 00:35:01 0
144 Harte-Spijker 00:34:59 7
145 poel 00:34:50 3
146 De koele koes 00:34:42 4
147 De zwemmende eendjes 00:34:33 1
148 Nijpjes 00:34:27 12
149 De Mensinga's 00:34:25 3
150 DeBeren 00:34:09 4
151 SMTL 00:34:08 1
152 Majiti's 00:33:58 4
153 Oordjes 00:33:58 5
154 NPGvanDiemers 00:33:56 2
155 De Krakers 00:33:53 2
156 110 00:33:53 4
157 Warlegganteam NL 00:33:52 1
158 Team Ellende 00:33:49 3
159 Breaking Out 00:33:48 1
160 Niet te kisten 00:33:46 1
161 Puttenaren 00:33:44 2
162 The Streamers 00:33:38 9
163 Ladies Kruut 00:33:30 1
164 Wat is er aan de kwant 00:33:24 8
165 Heemskerk 00:33:17 9
166 de huismerels 00:33:11 7
167 FamRAAR 00:33:10 2
168 Chantal's Angels 00:32:58 1
169 B100 00:32:57 0
170 Niet erg creatief 00:32:52 3
171 Toverdoosje 00:32:45 0
172 Bremmertjes 00:32:35 4
173 De zusters van BertJaap 00:32:32 2
174 Sleutelcode 00:32:29 1
175 Zwannies 00:32:27 5
176 TEMPVERM 00:32:16 6
177 Tishol 00:32:12 2
178 KILS 00:32:11 2
179 BadHairDay 00:32:02 1
180 Dewestfriezen 00:31:54 7
181 De Groene Buizerd 00:31:52 0
182 Sinqo H 00:31:44 3
183 De bijtjes🐝 00:31:34 11
184 De kwade vliegjes 00:31:32 2
185 The Highlanders 00:31:27 8
186 de Baaijvlaaiers 00:31:23 1
187 Vondertjes 00:31:20 0
188 De suppers ut Fryslan 00:31:12 6
189 De Keels 00:31:04 0
190 Marieke 00:31:02 2
191 Symaes en Vander Linden 00:30:57 8
192 Jong&co 00:30:56 1
193 love box 00:30:48 0
194 Vrijspeciaal 00:30:45 1
195 Team 63 00:30:41 4
196 huisje 648 00:30:31 3
197 De hunebedden 00:30:23 0
198 De GilseSchans 00:30:20 7
199 Bellista 00:30:19 2
200 Mathoen 00:30:15 4
201 Jungle Jim😛😛😛 00:30:14 8
202 Stapelbed 00:30:09 2
203 Familie Bolte 00:30:09 0
204 Noordgeuzen 00:30:07 4
205 Gezellig 00:30:04 4
206 Christel60 00:30:02 4
207 De pronkies 00:30:02 10
208 Uniekegroep 00:30:02 3
209 Lala 00:29:58 6
210 Animatieteam kuierpad + Roderick en Niek 00:29:55 1
211 Team bollo 00:29:53 0
212 Degroot 00:29:48 1
213 Perdokkies 00:29:44 2
214 Non-Sukkies 00:29:43 5
215 De bende 00:29:37 8
216 Verploegies&Smilo 00:29:36 4
217 31ALPHA 00:29:32 2
218 Vechtvallei 00:29:32 1
219 De Snuggles 00:29:29 5
220 De Rolletjes 00:29:27 0
221 InvestigationCheck 00:29:10 0
222 WeetIkVeel 00:29:07 2
223 Binkies 00:28:35 8
224 De Konings 00:28:28 3
225 Moedig Voorwaarts 00:28:26 0
226 Lilydora 00:28:26 3
227 Chickies & Jordy 00:28:25 4
228 Kwarktits 00:28:15 8
229 Jeneverbes 00:28:15 7
230 De Zilvervloot 00:28:15 1
231 Coronettes 00:28:15 2
232 Huipies 00:28:08 5
233 Coco bitches 00:28:07 9
234 Dijkstra 00:28:05 4
235 Tante Sjaan 00:28:03 3
236 MeijHutje 00:28:00 6
237 BeMaiWil 00:27:53 1
238 Segersen 00:27:47 2
239 De Diepgravers 00:27:44 3
240 Sirolf21 00:27:36 1
241 zooitje ongeregeld 00:27:36 4
242 Hotties 00:27:34 3
243 Limi 00:27:31 2
244 Eindhovendegekste 00:27:29 3
245 De Hottub 00:27:28 7
246 Kuipertjes😎 00:27:21 0
247 Ysbekkies 00:27:13 3
248 Boerhof 00:27:06 0
249 Schipper family 00:26:58 2
250 Faasjes 00:26:56 5
251 Havenhunters 00:26:55 8
252 Ome Jan 00:26:54 2
253 C&C 00:26:50 3
254 Wildenbeest 00:26:25 8
255 Familie van Dopperen 00:26:25 0
256 Helder 00:26:21 3
257 De Nijboertjes 00:26:13 4
258 Fam.Intveen 00:26:08 1
259 Op de camping! 00:26:07 3
260 De Nicolaaitjes 00:25:59 7
261 Gasjes 00:25:57 4
262 Alphen45 00:25:57 0
263 De Vippies 00:25:53 1
264 Ma Flodder 00:25:53 1
265 Familie Knol 00:25:53 7
266 B&V 00:25:51 8
267 De Bellies 00:25:51 3
268 Schonewillegies 00:25:49 0
269 Coole gang 00:25:47 4
270 Poepie 00:25:44 5
271 cafe de paus 00:25:37 3
272 Nina's Crew 00:25:34 2
273 Fam Rinsma 00:25:31 0
274 Aa 00:25:31 11
275 Balkum de gekste 00:25:28 1
276 De Smurfen 00:25:23 3
277 De Klagerjasclub 00:25:22 5
278 Onderzoekers 00:25:20 1
279 De abners 00:25:08 0
280 Hendrik IV 00:25:04 0
281 De arme stakkers 00:25:04 0
282 Oempa loempia's 00:25:02 1
283 VanDeNoodEenDeugd 00:24:50 5
284 Braamkes 00:24:43 1
285 Apenluiders 00:24:43 5
286 Du Lange 00:24:28 3
287 Maaskantjes 00:24:27 1
288 Kamer 237 00:24:17 9
289 ReRe 00:24:11 2
290 Familie kleinjan 00:24:04 0
291 Dongdong 00:24:02 3
292 de Japies 00:23:59 9
293 HACKERS 00:23:50 5
294 Berend botje 00:23:48 7
295 De Enkellikkers 00:23:46 0
296 Efawasa 00:23:43 7
297 Fang gang 00:23:41 5
298 Hallelujah 00:23:35 12
299 Baud and the Prangers 00:23:26 1
300 Njord 00:23:26 5
301 De Heidi’s 00:23:26 9
302 Fc 12 minutes 00:23:15 1
303 Guardians of the galaxy 00:23:07 4
304 De B.O-veld bende 00:23:06 1
305 Chicka’s uit Twente 00:22:58 2
306 The bomb 00:22:51 0
307 Faijdherbe 00:22:45 6
308 Kolkman! 00:22:44 11
309 De rare langers 00:22:40 3
310 Joke's posse 00:22:38 1
311 Eisco's 00:22:36 2
312 Leidyk 00:22:36 2
313 Liever te dik in de kist 00:22:31 1
314 Linda & Martin 00:22:23 4
315 Bikkers 00:22:23 4
316 Godinnen 00:22:15 3
317 VanSchootjes 00:22:14 11
318 Superspeurders 00:22:13 8
319 7 Koekoeks 00:22:09 0
320 Vinkman 00:22:09 7
321 Wei 00:22:08 3
322 groetjesvandeburen 00:22:05 9
323 Lenderink 00:22:02 1
324 Boschwachters 00:22:00 3
325 Westra 00:21:56 3
326 Langkawi 2 00:21:55 2
327 Taksi chauffeur 00:21:54 3
328 Compleet 00:21:43 1
329 Evelien en Daan 00:21:33 0
330 SjaMaPaCa 00:21:31 2
331 Bartje 00:21:24 3
332 Kesseltjes 00:21:23 1
333 Spijkermannetjes 00:21:19 11
334 Bart en Miriam 00:21:19 1
335 Waterpolitie 010 00:21:13 2
336 Teamwork kuierpad 00:21:12 12
337 Kuipertjes 00:21:11 4
338 Jomomabastis 00:21:10 4
339 Casa Peters 00:21:08 2
340 De Wiergo’s 00:21:05 3
341 Bende van ellende 00:21:05 3
342 De Platvissen 00:21:02 2
343 Hioany 00:21:02 5
344 Hut(s) 321 00:20:59 6
345 Backstreet Boys 00:20:58 2
346 Fonsie 00:20:57 5
347 DjesModz 00:20:51 12
348 KatrienDuckies 00:20:45 3
349 Van Tienen 00:20:45 1
350 Bibimbap 00:20:41 1
351 Smelikjes 00:20:40 1
352 Niensel 00:20:40 1
353 Kwibus&co 00:20:39 1
354 DIJAMERK 00:20:37 6
355 Strating 00:20:36 2
356 Verheugen 00:20:33 4
357 Visscher 00:20:31 3
358 Bossche Bollen 00:20:31 8
359 Sijmons en co 00:20:30 5
360 High Elbow 00:20:30 1
361 Burgertjes 00:20:29 8
362 JJC en mama’s 00:20:26 9
363 Molenkater 00:20:24 4
364 De Slagers 00:20:20 2
365 WebStone 00:20:13 3
366 De 4 biggetjes 00:20:11 0
367 Hamoen 00:20:09 4
368 Tokkie’s 00:19:59 12
369 Smits 00:19:58 2
370 Mamaenzo 00:19:55 3
371 Happy campers 00:19:53 3
372 Booem 00:19:49 0
373 TIKTOKSQUAD 00:19:45 4
374 Fam Havering 00:19:44 1
375 AJ 00:19:39 3
376 202 00:19:37 2
377 Mulletjes 00:19:35 3
378 Buurtjes!! 00:19:33 0
379 Alle ballen op Royston 00:19:26 5
380 Wesseltjes 00:19:24 1
381 Piraten 00:19:18 5
382 De grote Kak 00:19:09 0
383 KiSaTo Van MAC 00:19:09 1
384 Voyageurs 00:19:03 1
385 Stresskippen 00:19:02 9
386 De Grolsche Kater 00:19:01 9
387 Rendiertjes 00:18:58 1
388 Beekies 00:18:56 2
389 Dallies 00:18:56 6
390 Carr 00:18:33 2
391 De Hermsehuis band 00:18:32 0
392 Leila 00:18:30 4
393 FC Pannenkoek 00:18:29 4
394 Zus en co 00:18:28 3
395 Wijker 00:18:28 7
396 the mirrors 00:18:26 5
397 MIRACA 00:18:24 3
398 Toors 00:18:20 12
399 Schuluti's in de dop 00:18:12 0
400 De Boertjes 00:18:06 4
401 De puzzelaars 00:18:05 5
402 The Vermues 00:17:53 8
403 Beerze Rangers 00:17:50 2
404 DeVuggies5 00:17:47 9
405 Harold 00:17:37 9
406 peter en de koele kikkers 00:17:35 4
407 VandeRegen 00:17:33 4
408 Dejegerdingentjes 00:17:30 1
409 Lekkende balonnen 00:17:29 8
410 Poldermannen 00:17:28 0
411 Fanatiekelingen 00:17:21 3
412 D3Musketiers 00:17:17 1
413 Kinderman 00:17:17 2
414 Schut 00:17:14 0
415 DE RORO'S 00:17:13 3
416 Koerselman 00:17:09 3
417 Sikking 00:17:09 8
418 De 3 zoetjes 00:17:08 1
419 Bruss-apen 00:17:07 1
420 ZWELILOROFL 00:17:06 1
421 De Bovendeerdjes 00:16:59 2
422 JCL 00:16:56 11
423 Reddingsboeien 00:16:49 4
424 Slopers 00:16:48 4
425 Warm 00:16:47 5
426 Peters 00:16:43 3
427 B&B 00:16:41 9
428 Raatelandjes 00:16:34 2
429 Kuuperties 00:16:33 4
430 Knibbelby 00:16:31 1
431 Tjommie 00:16:31 7
432 de Steentjes 00:16:27 2
433 De Havensjaakies 00:16:26 2
434 Oversteegjes 00:16:18 6
435 Ruitertjes 00:16:13 0
436 Beilerbofkontjes 00:15:58 3
437 Oefoefoe’s 00:15:57 9
438 Reigâh 00:15:53 0
439 Tinyhousegang 00:15:49 10
440 Agreesieee 00:15:48 5
441 Team Tuinbank 00:15:48 2
442 #Besties 00:15:47 0
443 Boze Belgen 00:15:47 2
444 Maakerwatvan 00:15:42 6
445 Galenkamp 00:15:39 2
446 SterrenWorst 00:15:39 12
447 De Wellentjes 00:15:27 0
448 Wounie 00:15:26 3
449 de Graaf 00:15:25 11
450 Ava 00:15:21 5
451 Koele klippers 00:15:19 6
452 B-722 00:15:16 6
453 Aikes 00:15:15 3
454 The big 6 00:15:15 2
455 De grootjes 00:15:13 8
456 De Teuters 00:15:12 2
457 Muisketiers 00:15:12 7
458 Poeremetator 00:15:11 3
459 Familie Vermeer 00:15:11 1
460 Aadjenoga 00:15:09 4
461 Charlie 00:15:08 2
462 Sneekjes 00:15:05 4
463 van Leeuwen Prutsers 00:15:05 4
464 klavertjevier 00:15:01 8
465 NOXOLOGEN 00:14:58 1
466 Bobingas 00:14:51 5
467 JanEnSophie 00:14:47 3
468 Team Floepie 00:14:41 3
469 De Raatgevers weten raad 00:14:35 2
470 208ers 00:14:35 2
471 Paco 00:14:32 2
472 Frandré 00:14:32 2
473 Dombos 00:14:31 3
474 WarSpoor 00:14:29 3
475 Fultonstraat 00:14:26 3
476 Jongdek 00:14:26 3
477 Plukkestijn 00:14:22 1
478 Girl power 00:14:17 4
479 Sweet Smileys 00:14:15 1
480 DDMTJ 00:14:14 3
481 Burger 00:14:11 2
482 033 00:14:11 9
483 Team Roderick 00:14:10 1
484 Teambaby2022! 00:14:05 2
485 Klamer 00:14:04 0
486 Haringkoppen 00:13:55 4
487 Otters 00:13:48 4
488 Lisan 00:13:44 5
489 Pansier 00:13:40 8
490 De Pansyhansy's 00:13:38 2
491 Bevers 00:13:38 10
492 Margaret60 00:13:37 2
493 Tutti 00:13:37 5
494 Hagen4 00:13:34 3
495 De Brulboeien 00:13:32 4
496 M&L 00:13:30 2
497 Scharries 00:13:18 2
498 De Steentjes 00:13:17 7
499 De Ketraket 00:13:11 4
500 Bosuiltjes 00:13:11 3
501 007 00:13:09 1
502 De Kassies 00:13:08 6
503 De spreeuwen 00:13:01 4
504 De vier vosjes 00:12:57 1
505 #TeamZuurkool 00:12:54 6
506 Heijden 00:12:54 2
507 Lekkere wijven 00:12:53 6
508 Jacku 00:12:53 3
509 De fam 00:12:47 1
510 De Snelle Bananen 00:12:41 5
511 Spekkies 00:12:39 1
512 Skoatjes 00:12:36 2
513 Sissies 00:12:36 6
514 Lammetjes 00:12:36 4
515 Bridges & Co 00:12:34 3
516 VersluisRotterdam 00:12:30 1
517 Louwe Family 00:12:30 0
518 Animaniacs 00:12:29 9
519 Aapie&draakie 00:12:29 1
520 De winnaars 00:12:28 6
521 Janjansendekinderen 00:12:26 3
522 Ellerbroekies 00:12:23 1
523 Halimaanrilote 00:12:22 2
524 Team Pony 00:12:21 3
525 Wognumse faalhazen 00:12:16 6
526 The perfect mix 00:12:11 3
527 Postomaatjes 00:12:11 3
528 blokdinnies 00:12:06 7
529 Kwakkenvos 00:12:04 3
530 List & bedrog 00:12:02 2
531 Betsy 00:12:00 9
532 van Bodegraven 00:12:00 12
533 escapies 00:11:57 5
534 Mulderinho's 00:11:57 4
535 Ezelstad 00:11:55 3
536 Pull My Finger 00:11:54 2
537 De Houwies 00:11:46 3
538 De Vogelaartjes 00:11:45 7
539 Flodder en De Cock 00:11:40 3
540 MOLECATEN 2022 00:11:37 2
541 Fam Smit 00:11:37 2
542 De F16s 00:11:36 1
543 the ten berge clan 00:11:32 4
544 Bende van ellende 2022 00:11:32 7
545 Kruisjes 00:11:27 8
546 Gento’s 00:11:23 2
547 Druktemakers 00:11:22 2
548 Wietse en Els 00:11:22 4
549 Witte Wijfjes 00:11:20 1
550 De Kamelenrijders 00:11:16 2
551 DonenMaris 00:11:11 2
552 Groep 5 00:11:08 12
553 Berend Botje 666 00:11:06 2
554 PLAETENAEREN 00:11:03 6
555 Bouwmeester 00:11:01 3
556 De Plekkenpolletjes 00:10:53 7
557 CasadelGancho 00:10:53 3
558 De Hangbuikzwijntjes 00:10:53 0
559 the Rabbits 00:10:50 5
560 Lm 00:10:48 4
561 DeJagerz 00:10:47 5
562 Nieuwehuisjes 00:10:43 6
563 Sjtuffelke 00:10:38 2
564 JETI 00:10:38 6
565 Kruitjes 00:10:35 1
566 Tollies 00:10:35 5
567 Aardappelen in blik 00:10:35 4
568 Caittaathalathal 00:10:31 0
569 Fan Flodder 00:10:28 1
570 Schipsep 00:10:26 0
571 Fantasie uit Overdinkel 00:10:25 0
572 De Tika's 00:10:23 4
573 MiranChris 00:10:21 2
574 De Boerkes 00:10:19 2
575 Houtense Hunters 00:10:16 2
576 Oons moe 00:10:15 2
577 De Hetty's 00:10:15 2
578 The gold diggers 00:10:08 4
579 hippoo en kikker 00:10:02 4
580 F.L.A.M. 00:10:01 2
581 De Machies 00:09:54 7
582 Molecaten 2.0 00:09:51 6
583 C&A 00:09:49 2
584 Jongkies 00:09:38 5
585 AltUndNeu 00:09:33 12
586 Rema 00:09:32 2
587 Harmsie 00:09:30 5
588 Velema 00:09:27 0
589 De kampioenen 00:09:26 1
590 Stollies 00:09:22 1
591 Outjes 00:09:18 2
592 TukTuks 00:09:13 2
593 De Snellies 00:09:12 7
594 LUKENS 00:09:11 7
595 Fam. Lambermont 00:09:08 2
596 de Kalf knallers 00:08:57 5
597 Betuws geluk 00:08:55 4
598 Hendriksen 00:08:53 1
599 Maters hotline 00:08:51 1
600 Meulenrabbitmeer 00:08:50 4
601 Inspector Gadget 2.0 21 00:08:50 3
602 Foute gasten 00:08:43 2
603 Flanellen Willetje 00:08:38 5
604 Bollo Fanclub 00:08:37 4
605 Lewerissa 00:08:31 8
606 Vredenbregt 00:08:30 4
607 Dipshitties 00:08:30 5
608 MWSK 00:08:28 8
609 Slowliving 00:08:28 2
610 speurneusjanssen 00:08:22 4
611 Sarino dames 00:08:20 0
612 Pip&Puk 00:08:17 8
613 Jens is jarig 00:08:14 8
614 Team kist 00:08:14 1
615 Team Merel 00:08:10 3
616 Sasjormad 00:08:07 11
617 De struis 00:08:03 9
618 Kaaijts 00:08:03 3
619 DeKrakers 00:08:02 4
620 Fundering 00:07:59 6
621 Haven 00:07:58 0
622 Peter is Beter 00:07:43 0
623 Welling 00:07:41 1
624 Hoi 00:07:40 2
625 Dory 00:07:37 7
626 Westerhaar1 00:07:37 0
627 De escapers 00:07:36 3
628 Agent109 00:07:35 10
629 kapiteinLieke 00:07:33 4
630 De van Opstalletjes 00:07:33 6
631 Stelma 00:07:31 11
632 Arkeeijks 00:07:26 2
633 Hoofdkantoor vlinder 2 00:07:24 10
634 Louwtjes 00:07:22 2
635 Alpaca 00:07:20 7
636 Groep Awkward 00:07:18 0
637 Kaasknabbeltjes 00:07:12 5
638 Koenen-gang 00:07:09 5
639 Lana’s chicks 00:07:03 3
640 De Amsterdammertjes 00:07:02 7
641 LiefAmmy 00:07:01 12
642 De bende van Oss 00:07:01 8
643 Oetje toetjes 00:07:01 2
644 De bomhofjes/Vijgjes 00:07:00 6
645 Kromkamp 00:06:55 0
646 BUL 00:06:51 9
647 Wieggers433 00:06:47 8
648 Annemijn slaapt 00:06:41 6
649 Pirates of carrabean 00:06:41 9
650 Joost mag het weten 00:06:38 7
651 twee keer rechts een keer links 00:06:36 0
652 MaNaTiLiLa 00:06:36 4
653 Stoere fase 00:06:35 4
654 De politie KID 00:06:34 5
655 bolletjes 00:06:29 5
656 Beumers 00:06:27 5
657 Kootjes 00:06:23 5
658 Cor's angels 00:06:21 8
659 Familie Kremers 00:06:21 2
660 The Escape Artists 00:06:17 2
661 BOLLO 00:06:13 3
662 Masterminds 00:06:13 4
663 De Waardtjes met Appel 00:06:11 3
664 Barney's 00:06:08 7
665 Schaapjes 00:06:07 3
666 YOUPIE 00:06:06 6
667 Zwahili 00:06:06 0
668 Boumaatjes 00:06:05 12
669 BiZunder 00:06:00 5
670 Simmerdeis 00:05:56 4
671 Ijsvogeltjes 00:05:54 12
672 Van Bollies 00:05:51 4
673 Glitterdrollen 00:05:50 4
674 De Starke 5 00:05:47 5
675 Nylo’s bbgs❤️🥺 00:05:45 8
676 Blokkies 00:05:45 12
677 wintersportsmall 00:05:42 5
678 ‘n Krul 00:05:29 0
679 Vugts 00:05:25 3
680 Feestje72 00:05:24 5
681 Ruud en Yvonne 023 00:05:23 4
682 Rcn 00:05:18 1
683 Tolsma gebroed & co 00:05:17 2
684 Graaffjes 00:05:13 4
685 OK-Bitches 00:05:09 6
686 De smikkelbeertjes 00:05:02 6
687 de Alblasjes Detectives 00:04:54 12
688 Dubbelsafe 00:04:54 4
689 Wasbo’s 00:04:51 5
690 HugodeGroot 00:04:48 1
691 Leeuwens 00:04:44 2
692 Het mysterie van de haven 00:04:43 1
693 Wurffies 00:04:42 4
694 Steenberg 00:04:39 11
695 JIPST 00:04:38 3
696 Suuman 00:04:32 5
697 HR LHPO 00:04:31 0
698 Plantjes 00:04:28 7
699 Buffels 00:04:27 9
700 rudolf de king 00:04:21 4
701 Scrocchi grande 00:04:21 7
702 De Voorsluijsjes 00:04:19 9
703 Dekcheng 00:04:19 3
704 sewtahani 00:04:18 10
705 deGraaf 00:04:16 12
706 The Secret Hunters 00:04:11 4
707 Hagbloem35 00:04:11 3
708 Kokshoorn 00:04:11 4
709 Zoniet, dan toch 00:04:10 8
710 Berk 00:04:05 5
711 Detectives Die en Buh 00:04:02 1
712 De Valkies 00:03:56 8
713 De Schippers 00:03:55 5
714 Klabbertjes 00:03:54 4
715 Moltman 00:03:52 1
716 Kreekies 00:03:48 8
717 Pouweltjes 00:03:43 3
718 fam.Roeling 00:03:34 2
719 Van Triggies 00:03:33 8
720 Klaar weer... 00:03:32 0
721 bijlkooten 00:03:32 11
722 Ain’t no mountain high enough 00:03:30 1
723 The Clue Crew 00:03:29 4
724 LR 00:03:28 11
725 De Eekhoorntjes 00:03:23 5
726 Kampeerbrothers 00:03:22 6
727 Nelson Mandela 00:03:21 1
728 Oeno en de rest 00:03:19 1
729 Anhajofe 00:03:16 5
730 Kapitein Onderbroek 00:03:09 4
731 Amendt 00:03:07 12
732 Snoensels 00:03:05 0
733 BultEef 00:03:02 4
734 Papagaai61 00:02:59 4
735 Berg 00:02:58 12
736 Team Putten 00:02:58 5
737 Nijen🏠 00:02:58 4
738 Nachtuiltjes 00:02:58 4
739 Escape Derckies 00:02:52 3
740 De Tebbertjes 00:02:47 3
741 Hilau 00:02:46 2
742 TJMS 00:02:45 8
743 203 00:02:42 4
744 Geen idee 00:02:40 3
745 Kleine Ijsbeer 00:02:31 5
746 Misty en de Detectives 00:02:26 7
747 De Reddertjes 00:02:23 8
748 403 00:02:23 7
749 Ouwerkerkjes 00:02:23 4
750 De Dikkels 00:02:23 3
751 De broemende Gerrie's 00:02:20 7
752 Penning 00:02:19 6
753 De slimme vogels 00:02:18 10
754 Buithorst 00:02:09 11
755 Jurgen 00:02:08 12
756 Thomas2.0 00:02:02 6
757 Klein Wassink 00:02:02 3
758 De Boompiepers 00:02:02 3
759 Kluskes 00:02:01 3
760 de beste lammies 00:01:58 0
761 Wielewaal 00:01:57 7
762 LEFF 00:01:51 5
763 Moeders en co 00:01:49 4
764 Van Dijk 00:01:42 3
765 Leeuwtjes 00:01:38 5
766 Possie 00:01:31 4
767 ZIGGYS GANG 00:01:30 12
768 T L Koef 00:01:28 4
769 Bakvissen 00:01:27 11
770 5 Musketiers 00:01:25 7
771 Joep & Co 00:01:22 5
772 The final braincell 00:01:22 8
773 Popkens 00:01:20 4
774 De Nollies 00:01:19 4
775 De Grimmies 00:01:18 3
776 Kooijtjes 00:01:17 2
777 Disco fever 00:01:07 3
778 De Familie Leeuwen 00:01:06 10
779 2/3 ter Schure + koude kant 00:01:05 8
780 De Fidders 00:01:05 4
781 SmiemiesDenHaag 00:01:02 6
782 Jehannes de beatle 00:01:01 6
783 Hemelvaart2021 00:01:01 5
784 Boersma&co 00:01:01 7
785 Soesclub 00:01:01 10
786 plasjes 00:00:55 5
787 quandale_dingle 00:00:53 9
788 Wie in de haven? 00:00:49 6
789 Gommers 00:00:40 4
790 Hanse Heultie 00:00:39 6
791 Sjan 00:00:38 4
792 VBK 00:00:37 6
793 MoobLockPower 00:00:34 4
794 BlubBlub 00:00:30 6
795 HuisjesCol 00:00:29 8
796 Piratenhiernaast 00:00:28 12
797 Drie musketiers 00:00:26 5
798 De Wielies! 00:00:26 4
799 Familie Verkade 00:00:18 6
800 sas en mark 00:00:13 1
801 De salamanders 00:00:11 3
802 ekkelties 00:00:08 7
803 Grolsch United 00:00:07 5
804 Taeko’s 00:00:07 4
805 Flodders 00:00:04 8
806 Smeerkerkies 00:00:03 2
807 Kwizzwizz 00:00:00 1
808 Sundaymorning 00:00:00 8
809 De Kr@kers 00:00:00 4
810 TheFamily 00:00:00 11
811 OSG 00:00:00 4
812 Familieoost! 00:00:00 12
813 De Lions 00:00:00 8
814 Autoservicekole 00:00:00 6
815 Beukenootjes 00:00:00 4
816 Goldies 00:00:00 5
817 De Pindakaasjes 00:00:00 4
818 De Gorties! 00:00:00 1
819 De Escape-aapjes 00:00:00 10
820 Realna 00:00:00 5
821 Eierpower 00:00:00 5
822 Naccers 00:00:00 6
823 Boris BOEFJES 00:00:00 5
824 Test 00:00:00 1
825 Fam. Power 00:00:00 8
826 Tobies 00:00:00 6
827 Ritzerflits 00:00:00 6
828 Bosjes 00:00:00 10
829 Licky 00:00:00 7
830 De Glasjes 00:00:00 5
831 Erbera216 00:00:00 8
832 ijtjes 00:00:00 2
833 Het droomteam 00:00:00 10
834 Oost 00:00:00 12
835 Boekel//Gols 00:00:00 5
836 Brownies 00:00:00 12
837 Boermannetjes 00:00:00 9
838 HOLY TRINITY 00:00:00 9
839 BerlicumPernis 00:00:00 4
840 we laten ons niet kisten! 00:00:00 8
841 Versteeg bv 00:00:00 10
842 Korfies 00:00:00 5
843 Droge worsten 00:00:00 5
844 Niet voor de poes 00:00:00 3
845 Loetje 00:00:00 7
846 josan 00:00:00 6
847 Limari 00:00:00 11
848 Viskraam 00:00:00 3
849 Homburg 00:00:00 1
850 Beushuis 00:00:00 0
851 Verbeekjes 00:00:00 11
852 Klimmers min 1 00:00:00 8
853 Snelle Brauny's 00:00:00 5
854 Familie van Waes 00:00:00 12
855 Catering de Groot 00:00:00 3
856 De Dikketives 00:00:00 8
857 Eekhoorntjes 00:00:00 3
858 De Chickies 00:00:00 11
859 Huisje77 00:00:00 7
860 Luuk pro 00:00:00 6
861 brisa 00:00:00 12
862 Maasdammertjes 00:00:00 9
863 222 00:00:00 8
864 Abcouwers 00:00:00 7
865 koppelhoentje 00:00:00 11
866 De Bekertjes 00:00:00 4
867 Bende van Ellende 00:00:00 9
868 Molletjes 00:00:00 0
869 Hagels 00:00:00 4
870 RB&RB 00:00:00 0
871 Mat 00:00:00 0
872 Werfjes 00:00:00 12
873 Jansen 00:00:00 4
874 Prinsjes 00:00:00 12
875 De popcorn poppers 00:00:00 5
876 Mysterie W51 00:00:00 7
877 Ouderkerkjes 00:00:00 9
878 Zeewolde 00:00:00 3
879 Denkers 00:00:00 2
880 Jimmy 00:00:00 6
881 De geheimzinnige club 00:00:00 4
882 Ynemaatjes 00:00:00 7
883 KAAS 00:00:00 4
884 Billy&Bollie 00:00:00 6
885 van den Bergjes 00:00:00 9
886 Sukkels 00:00:00 7
887 Vasco 00:00:00 5
888 WES&FEM 00:00:00 6
889 Hartjes 00:00:00 6
890 Hoogesteger 00:00:00 10
891 The Bugs 00:00:00 8
892 Marcel en Lynn 00:00:00 4
893 Poeka’s 00:00:00 4
894 IJstaartjes 00:00:00 5
895 Youpyoupyoup 00:00:00 0
896 JH 00:00:00 7
897 De reizigers 00:00:00 6
898 Fredjes 00:00:00 8
899 Piemels253 00:00:00 8
900 vandermeeralma 00:00:00 11
901 Kokken 00:00:00 12
902 Brouwer 00:00:00 12
903 Banboekids 00:00:00 8
904 de vandaaltjes 00:00:00 6
905 The Flunx 00:00:00 10
906 de Kuikentjes 00:00:00 6
907 Westerinkjes 00:00:00 4
908 royco 00:00:00 1
909 - 00:00:00 4
910 Spierenburgclan 00:00:00 7
911 Sjanies 00:00:00 3
912 Team Rob de Ruiter 00:00:00 5
913 Huisnummer 68 00:00:00 6
914 La Familia 00:00:00 5
915 Reinders 00:00:00 3
916 Lensies 00:00:00 2
917 Harem 00:00:00 5
918 DE FRANSWATJES 00:00:00 3
919 Camping tokkies 00:00:00 12
920 Animatie team Kuierpad 2021 00:00:00 2
921 Hatseflats 00:00:00 12
922 Janine+maris 00:00:00 0
923 De gompies 00:00:00 11
924 Vogel 00:00:00 5
925 Zeeuwtjes 00:00:00 9
926 Veenendaaltjes 00:00:00 2
927 SB escape team 00:00:00 4
928 Flipsen 00:00:00 6
929 De drietjes 00:00:00 10
930 Roggeveenstreetjes 00:00:00 9
931 Klos 00:00:00 8
932 Johejo 00:00:00 5
933 Langkawi 00:00:00 0
934 Schouten 00:00:00 6
935 Yvonne&Nienke 00:00:00 6
936 Hhw072 00:00:00 7
937 Bavianen Wijlens 00:00:00 12
938 Siek & Krul 00:00:00 4
939 Dokters Beard 00:00:00 3
940 zwijnen 00:00:00 3
941 De eekhoorn 00:00:00 10
942 FIOD 00:00:00 4
943 Lonzo 00:00:00 4
944 Floortjes 00:00:00 5
945 de Bruijn 00:00:00 8
946 Layla's butlers 00:00:00 7
947 Liever te dik in de .... 00:00:00 2
948 mumimisi 00:00:00 10
949 Half seuvm 00:00:00 4
950 Lagemaat35 00:00:00 12
951 De leeuwtjes 00:00:00 7
952 Tenbrinkjes 00:00:00 10
953 JarigeJoost 00:00:00 1
954 Vosjes 00:00:00 2
955 De onesies 00:00:00 10
956 De Valkjes 00:00:00 1
957 Friesland 00:00:00 6
958 Bouvies7 00:00:00 7
959 De douane 00:00:00 10
960 Malden's Hoop 00:00:00 6
961 Yin14jaar 00:00:00 8
962 Boel 00:00:00 9
963 VdH 00:00:00 10
964 Dijksma 00:00:00 12
965 De Kort Kanjers 00:00:00 4
966 Codekrakers 00:00:00 10
967 Huisje25 00:00:00 6
968 Stello 00:00:00 12
969 Sander & Kimberley 00:00:00 10
970 Feniks 00:00:00 0
971 515 JACUZZIHOUSE 00:00:00 8
972 Vrouwluu 00:00:00 9
973 Feniks2 00:00:00 10
974 Leussink 00:00:00 4
975 De politiegroep 00:00:00 4
976 De terpjes 00:00:00 9
977 Tedd 00:00:00 4
978 Krooijkjes 00:00:00 11
979 BIKE 00:00:00 7
980 Brem 00:00:00 10
981 Plusjes 00:00:00 9
982 Team escape BRS 00:00:00 10
983 Boyoos 00:00:00 5
984 Souren 00:00:00 6
985 Kalka 00:00:00 11
986 Veerhunters 00:00:00 7
987 De Lama's 00:00:00 5
988 Kistslopers 00:00:00 6
989 Utnaaiers en utbukers 00:00:00 8
990 De 4 musketiers 00:00:00 10
991 Duuk2021 00:00:00 5
992 Penamalo 00:00:00 6
993 De Buurtjes 00:00:00 3
994 Lars & Lars 00:00:00 5
995 De Gerdaas 00:00:00 4
996 wilbie 00:00:00 8
997 FAM VD KOLK 00:00:00 4
998 De brunies 00:00:00 4
999 Grootenleeuw 00:00:00 9
1000 50 plus Petra 3-3 00:00:00 12
1001 De scheetjes 00:00:00 4
1002 DDN Hattem 00:00:00 5
1003 MaLiNyJo 00:00:00 8
1004 De dijkjes 00:00:00 11
1005 Remco en Esther 00:00:00 12
1006 De Jongetjes 00:00:00 8
1007 Spruotjes 00:00:00 0
1008 DeOnderkinnen 00:00:00 2
1009 De eekhoorns 00:00:00 7
1010 De Hermansjes 00:00:00 7
1011 Brinkies 00:00:00 6
1012 Fam. Villerius 00:00:00 7
1013 50 jaar getrouwd 00:00:00 6
1014 Hoogeveen 00:00:00 5
1015 De kukelekuutjes 00:00:00 12
1016 Golden Gangsters 119 00:00:00 3
1017 Die DELLER-Kids 00:00:00 6
1018 De pilspiraten 00:00:00 5
1019 Postma 00:00:00 12
1020 Martena 00:00:00 6
1021 Hamerslag 00:00:00 9
1022 FreePuck 00:00:00 5
1023 Hallinkies 00:00:00 2
1024 Foxie Team 00:00:00 6
1025 Voorentjes 00:00:00 2
1026 De Kroontjes 00:00:00 12
1027 De jojo’s 00:00:00 12
1028 De knallende vijf 00:00:00 11
1029 Jet en de oudjes 00:00:00 8
1030 De theekopjes 00:00:00 12
1031 Offringgons 00:00:00 2
1032 MEPCLRY 00:00:00 6
1033 De teletubbies 00:00:00 1
1034 Mama’s en de papa’s 00:00:00 6
1035 Smeding 00:00:00 11
1036 Fissa 00:00:00 10
1037 De Krakende Kakkers 00:00:00 8
1038 Schootjes 00:00:00 7
1039 Team Fokkers 00:00:00 4
1040 Fam. Looij 00:00:00 10
1041 Admiraaltjes 00:00:00 12
1042 Team Worstebroodjes 00:00:00 7
1043 Jonkman 00:00:00 11
1044 Fam Rutten 00:00:00 4
1045 The Browns 00:00:00 2
1046 Baldadige hennies 00:00:00 9
1047 Fighters 00:00:00 1
1048 Snoepjes 00:00:00 1
1049 Klutertjes 00:00:00 7
1050 De pernukkels 00:00:00 10
1051 Heusies 00:00:00 12
1052 Kimme Santie 00:00:00 5
1053 Veltkamp 00:00:00 11
1054 De Bosmannetjes 00:00:00 5
1055 De Baarsjes 00:00:00 6
1056 Scheper2.0 00:00:00 8
1057 Sennes trots 00:00:00 3
1058 Brandwel 00:00:00 9
1059 Club Lindenburg 00:00:00 4
1060 De Panapadders 00:00:00 3
1061 DeMatrozen 00:00:00 2
1062 Brookovich 00:00:00 12
1063 EEKHOORN 00:00:00 11
1064 The 8 team 00:00:00 12
1065 Knuf&Co 00:00:00 8
1066 Yuki 00:00:00 4
1067 Hero’s 00:00:00 0
1068 De Oplossers 00:00:00 1
1069 Dijkjes 00:00:00 6
1070 De Drostjes 00:00:00 2
1071 Genieters 00:00:00 5
1072 lol masters 00:00:00 12
1073 #teamLangedijk 00:00:00 3
1074 Kruijsjes 00:00:00 6
1075 Wetserparkduifjes 00:00:00 0
1076 Nieuwenkampjes 00:00:00 9
1077 de Kleijntjes 00:00:00 5
1078 Peeterskes 00:00:00 3
1079 Chickenladies 00:00:00 11
1080 Gerrit & Kim 00:00:00 8
1081 DeMulders 00:00:00 11
1082 Carrem 00:00:00 8
1083 Kloot 00:00:00 8
1084 De elsbeek 00:00:00 10
1085 The Big Brains 00:00:00 7
1086 Smitne 00:00:00 4
1087 van Houtjes 821 00:00:00 4
1088 Marencis 00:00:00 8
1089 Hokkies 00:00:00 2
1090 Aardbei 00:00:00 4
1091 Amsterdam gang 00:00:00 8
1092 Van de Gruppies 00:00:00 8
1093 FEMELIE-H 00:00:00 8
1094 Uil 00:00:00 10
1095 Molsnollen 00:00:00 5
1096 Dekkertjes 00:00:00 10
1097 Limoenje 00:00:00 9
1098 Boersmaatjes 00:00:00 12
1099 Nijsingh 00:00:00 7
1100 Appeltje biertje 00:00:00 12
1101 Splintertjes 00:00:00 1
1102 NOAH 00:00:00 11
1103 Kolibri 00:00:00 8
1104 De chicas 00:00:00 11
1105 Moleman 00:00:00 5
1106 Enweerdoor 00:00:00 6
1107 Henkies 00:00:00 7
1108 de lollypops 00:00:00 5
1109 Fam Deelen 00:00:00 8
1110 3 Musketiers 00:00:00 11
1111 Wappies 00:00:00 2
1112 Pluusjes01 00:00:00 12
1113 AapSchaap 00:00:00 9
1114 Bollo327 00:00:00 12
1115 Vlotte mwannen 00:00:00 4
1116 DORGST! 00:00:00 9
1117 Halfje Wit 00:00:00 8
1118 Fam.Schellekens 00:00:00 8
1119 Kiren 00:00:00 6
1120 Bryan 00:00:00 2
1121 Wokko&Plonty 00:00:00 8
1122 Stippie en Strepie 00:00:00 6
1123 De baaltjes 00:00:00 10
1124 DeGraaf 00:00:00 4
1125 De Bundy's 00:00:00 8
1126 De Nozems 00:00:00 11
1127 Polmo 00:00:00 4
1128 Tafka282 00:00:00 3
1129 fam Kleinjan 00:00:00 4
1130 Snelle janne 00:00:00 4
1131 Scholten 00:00:00 2
1132 . 00:00:00 7
1133 Peller 00:00:00 5
1134 De groene koetjes 00:00:00 12
1135 JoLaMiMa 00:00:00 3
1136 Janneke en matthijs 00:00:00 5
1137 Cageman 00:00:00 12
1138 De aardappels 00:00:00 12
1139 Groep 2 00:00:00 0
1140 AVLK 00:00:00 2
1141 Bijna slim 00:00:00 1
1142 HulseggeBulties 00:00:00 4
1143 Dupger 00:00:00 2
1144 Loopy Lions 00:00:00 0
1145 Tokkies uit Monnickendam 00:00:00 12
1146 Lizzy 00:00:00 5
1147 De Roze olifant 00:00:00 9
1148 Hunters 00:00:00 12
1149 ramona 00:00:00 12
1150 De Bobi’s 2.0 00:00:00 12
1151 De Wappies 00:00:00 5
1152 Dreistein 00:00:00 4
1153 Janssen 00:00:00 11
1154 Duo Lijo 00:00:00 10
1155 Unglaublich 00:00:00 11
1156 De Nachtegaaltjes 00:00:00 2
1157 Daphne & Yoran 00:00:00 1
1158 Houdini 00:00:00 6
1159 070ers 00:00:00 7
1160 WiWiWu 00:00:00 4
1161 kollies 00:00:00 1
1162 Noukies 00:00:00 8
1163 De Haantjes 00:00:00 6
1164 De 3 musketiers 00:00:00 7
1165 Kiekieks 00:00:00 2
1166 De Bende van Ellende 00:00:00 8
1167 qwerty 00:00:00 4
1168 TILBO’S 00:00:00 3
1169 PELLETJES 00:00:00 4
1170 Happy familie 00:00:00 2
1171 Vosco 00:00:00 5
1172 SnelMil 00:00:00 5
1173 Noorderboertjes 00:00:00 5
1174 Maissan 00:00:00 6
1175 TeamKreutzer 00:00:00 3
1176 De Counter Pounters 00:00:00 7
1177 Weuke pankenken 00:00:00 9
1178 The harbor detectives 00:00:00 8
1179 Vliegende mossels 00:00:00 1
1180 Cheesypop 00:00:00 4
1181 Patjanstantho 00:00:00 11
1182 Ruessink 00:00:00 8
1183 Molke-444 00:00:00 7
1184 De hoekschewaarders 00:00:00 5
1185 Kill the piñata 00:00:00 6
1186 Betty en patty 00:00:00 10
1187 DIEZE 00:00:00 9
1188 Casa Kaasje 00:00:00 4
1189 Piraten 00:00:00 8
1190 Laserkit 00:00:00 6
1191 Klomp 00:00:00 10
1192 Schummi's 00:00:00 6
1193 Elpies 00:00:00 11
1194 Team Valerie 00:00:00 3
1195 Ties 00:00:00 9
1196 Verbrugge 00:00:00 9
1197 Hogeling 00:00:00 0
1198 Broer van dijk 00:00:00 4
1199 Langeberg 00:00:00 5
1200 Team kaya 00:00:00 5
1201 De Witjes 00:00:00 8
1202 De doedels 00:00:00 5
1203 GoldenGirls_* 00:00:00 2
1204 Veenestars 00:00:00 2
1205 t'veen 00:00:00 5
1206 Klunder 00:00:00 10
1207 Boelies 00:00:00 6
1208 MirMar 00:00:00 6
1209 3 coolste BFF’S 00:00:00 7
1210 Sherlock Hoos 00:00:00 4
1211 Reddingstas 00:00:00 3
1212 Dream team 00:00:00 3
1213 310 00:00:00 8
1214 Roversbende 00:00:00 7
1215 Depoep 00:00:00 6
1216 Huisje305 00:00:00 7
1217 De smints 00:00:00 8
1218 De Ruijtenbergies 00:00:00 4
1219 Kloostertjes 00:00:00 12
1220 The Jacobs Family 00:00:00 7
1221 Sharks 00:00:00 4
1222 Walletjes 00:00:00 8
1223 BeersMill 00:00:00 0
1224 FC Max 00:00:00 6
1225 Snorlax 00:00:00 10
1226 Het is gezelliger zonder joey en tom 00:00:00 0
1227 LTK 00:00:00 4
1228 KWEC 00:00:00 10
1229 SUSSYBAKA's 00:00:00 2
1230 Tuinstra 00:00:00 11
1231 NOAD 00:00:00 10
1232 PjÖtterclan 00:00:00 2
1233 Kampeerders 00:00:00 9
1234 Pannenkoeken 00:00:00 3
1235 Gare Gerries 00:00:00 0
1236 Vermeulentjes 00:00:00 11
1237 Poesjesclub 00:00:00 7
1238 Hart&Koek 00:00:00 9
1239 Svenpapa 00:00:00 9
1240 Hovestadjes 00:00:00 10
1241 Berkstok 00:00:00 3
1242 Benkies 00:00:00 10
1243 Schoorl&co 00:00:00 7
1244 De Pioniers 00:00:00 7
1245 JJ 00:00:00 8
1246 FF 00:00:00 0
1247 Team Nijenkampies 00:00:00 11
1248 Spruitjes4724 00:00:00 3
1249 Prutsers 00:00:00 0
1250 Nu wel 00:00:00 2
1251 De Kolhekjes 00:00:00 7
1252 De pekelders 00:00:00 10
1253 Wijnberg 00:00:00 12
1254 Koekoek 00:00:00 6
1255 Wijnland 00:00:00 5
1256 De bergjes 00:00:00 11
1257 3Xwijnen 00:00:00 6
1258 De Snelle Kippen 00:00:00 8
1259 Triest 00:00:00 10
1260 Vetflikkers 00:00:00 2
1261 The Flugels 00:00:00 5
1262 Troostelingen 00:00:00 3
1263 Fuck de corona 00:00:00 0
1264 Het boeit mij niks 00:00:00 6
1265 Veenstra klungels 00:00:00 7
1266 Robbedoes & Co 00:00:00 5
1267 2gether 00:00:00 6
1268 Fam van de Pavert 00:00:00 8
1269 Boda 00:00:00 4
1270 Arends 00:00:00 8
1271 Dikke mieke 00:00:00 4
1272 Beleven avontuur 00:00:00 12
1273 Team Megchelen 00:00:00 6
1274 Zusters en zwagers 00:00:00 6
1275 Make that the cat wise 00:00:00 6
1276 De veluwe 00:00:00 6
1277 Van Marion 00:00:00 8
1278 Team krab 00:00:00 12
1279 Super Zwaap 00:00:00 11
1280 Escape de Wit 00:00:00 6
1281 Wiebe60 00:00:00 5
1282 Lansinkjes 00:00:00 5
1283 Commanders 00:00:00 3
1284 Havenzangers 00:00:00 4
1285 De Slotties 00:00:00 5
1286 De vries 00:00:00 9
1287 FamilieGerdes 00:00:00 6
1288 Mais 00:00:00 2
1289 De Bhattoetjes 00:00:00 5
1290 Cf 00:00:00 2
1291 Koekwauze 00:00:00 1
1292 Vjennekloetn 00:00:00 5
1293 Schoutjes 00:00:00 3
1294 Jorrie 00:00:00 5
1295 Boeltjes 00:00:00 8
1296 Rupertjes 00:00:00 5
1297 Welages 00:00:00 6
1298 Flikken Zeeland 00:00:00 10
1299 C 00:00:00 4
1300 Escape Squad 00:00:00 11
1301 SVEH 00:00:00 3
1302 De sjippies 00:00:00 4
1303 Speklepjes 00:00:00 12
1304 Ummy gang 00:00:00 5
1305 Jacobs Struik 00:00:00 12
1306 Bafaar 00:00:00 5
1307 Smarties 00:00:00 2
1308 De Sminkjes 00:00:00 9
1309 Tiellie-Roetie 00:00:00 7
1310 TijnIse 00:00:00 7
1311 lolmans 00:00:00 8
1312 Bakx 00:00:00 2
1313 aerdts 00:00:00 3
1314 PitoKnerpie 00:00:00 9
1315 Team steenuil 00:00:00 5
1316 Kerstig 00:00:00 6
1317 Zijlstra Bolsward 00:00:00 8
1318 Dupoint 00:00:00 9
1319 KNALA 00:00:00 5
1320 De Paupers 00:00:00 4
1321 Dappere dodo 00:00:00 3
1322 Kluijtjes 00:00:00 5
1323 Powerpannenkoeks 00:00:00 11
1324 Vossen 00:00:00 12
1325 De zes van S 00:00:00 12
1326 Nieuwkomers 00:00:00 11
1327 De Doorentjes 00:00:00 3
1328 Kersten 00:00:00 12
1329 Masterluuk 00:00:00 9
1330 Lasange 00:00:00 8
1331 Vakantiegangers 00:00:00 2
1332 Franken 00:00:00 7
1333 De kraanvogels 00:00:00 8
1334 Overbeekjes 00:00:00 4
1335 Zaalberg 00:00:00 5
1336 Groen 00:00:00 2
1337 Liertjes 00:00:00 11
1338 The stunters 00:00:00 3
1339 Dolly dota 00:00:00 2
1340 Dijkxhoorn 00:00:00 6
1341 De bitterballen 00:00:00 3
1342 De 402 club 00:00:00 8
1343 Braampies 00:00:00 6
1344 Voogies 00:00:00 12
1345 De bonte ridders 00:00:00 8
1346 Postjes 00:00:00 8
1347 Kuikentjes 00:00:00 5
1348 De Joopies 00:00:00 5
1349 Eekhoorn715 00:00:00 5
1350 Lammerts van Bueren 00:00:00 5
1351 Snollebollekes 00:00:00 7
1352 Team Babyballa 00:00:00 4
1353 Sterrehiem 00:00:00 8
1354 Oudjes 00:00:00 4
1355 De Zwemmers 00:00:00 7
1356 De cocaïne hunters 00:00:00 6
1357 valkjes 00:00:00 10
1358 Christmasteam 00:00:00 6
1359 Veneklaas 00:00:00 12
1360 De Gibanelclub 00:00:00 4
1361 Chaos 00:00:00 12
1362 Berend botjes 00:00:00 8
1363 De speurneuzen 00:00:00 5
1364 Bosch 00:00:00 0
1365 NewYearsEve2021 00:00:00 5
1366 Fam Poortman 00:00:00 2
1367 Kasseltjes 00:00:00 11
1368 scottuutnham 00:00:00 4
1369 Elly 00:00:00 3
1370 B-Team 00:00:00 0
1371 De Engineers 00:00:00 2
1372 fam souverehren 00:00:00 2
1373 De Rielse beulen 00:00:00 9
1374 Kleinjan 00:00:00 1
1375 Waddenzee 00:00:00 0
1376 Poortvlietjes 00:00:00 9
1377 Het buikorakel 00:00:00 12
1378 Van der Linden 00:00:00 11
1379 HAJ hkz zld 00:00:00 8
1380 De Bergjes 00:00:00 7
1381 De spijkerhaven 00:00:00 6
1382 The Rebbels 00:00:00 3
1383 Maasjes 00:00:00 7
1384 Rodel 00:00:00 10
1385 De Brouwertjes 00:00:00 5
1386 Malle Henkie 00:00:00 4
1387 De uitglijders 00:00:00 5
1388 pink santa 00:00:00 1
1389 Mesmetsucces! 00:00:00 6
1390 FamFaam 00:00:00 4
1391 Gekke Sweersjes 00:00:00 9
1392 Radij 00:00:00 12
1393 Dieseltjes 00:00:00 5
1394 The V-Team 00:00:00 3
1395 Lange Cremertjes 00:00:00 12
1396 Wichertjes 00:00:00 0
1397 De oepies 00:00:00 7
1398 Juffertjes 00:00:00 10
1399 FamBijloo 00:00:00 4
1400 Stokxies 00:00:00 3
1401 Luc 00:00:00 5
1402 Klokkie 00:00:00 11
1403 DieVanHuisje333 00:00:00 7
1404 Mastopjes 00:00:00 10
1405 Speurs 00:00:00 9
1406 Bruggen 00:00:00 9
1407 De stoere codekrakers 00:00:00 6
1408 De 713-tjes 00:00:00 12
1409 tije en de rest 00:00:00 7
1410 knuppels 00:00:00 3
1411 Lamers225 00:00:00 6
1412 Benbo 00:00:00 6
1413 Het kan friezen het kan dooien 00:00:00 9
1414 Kok-Duif 00:00:00 3
1415 K2 00:00:00 7
1416 Maatjes 00:00:00 6
1417 Lottijn 00:00:00 8
1418 De Kramers & Robin 00:00:00 6
1419 VakantieClub99 00:00:00 12
1420 Stone Squad 00:00:00 2
1421 De muisjes venema 00:00:00 1
1422 BuEen 00:00:00 3
1423 De inbrekers 00:00:00 10
1424 Billy de hond 00:00:00 8
1425 The Winners 00:00:00 7
1426 Poortvliet 00:00:00 8
1427 Aniek&Nick 00:00:00 4
1428 nederend 00:00:00 12
1429 De Bultjes 00:00:00 6
1430 De Houtense Duif 00:00:00 3
1431 Eilandjes 00:00:00 6
1432 Veekenwintaltijd 00:00:00 10
1433 The Boys 00:00:00 8
1434 Kaas 00:00:00 7
1435 Deernties 00:00:00 4
1436 Manage Rensen 00:00:00 7
1437 De twee musketiers 00:00:00 9
1438 Jaxi 00:00:00 8
1439 The dogs 00:00:00 12
1440 Family105 00:00:00 5
1441 Bird 00:00:00 7
1442 De voetballers 00:00:00 8
1443 De Nelissen Masters 00:00:00 9
1444 Hato 00:00:00 7
1445 Bruinberg 00:00:00 4
1446 Poldervaartjes 00:00:00 9
1447 The Boyz 00:00:00 4
1448 Carpenters 00:00:00 8
1449 Diagnaze 00:00:00 5
1450 Famklein 00:00:00 9
1451 Laajan 00:00:00 8
1452 geen leuke familie 00:00:00 4
1453 DePosthoeve 00:00:00 4
1454 Linschoters 00:00:00 3
1455 De toppers 00:00:00 7
1456 Tony and Ezekiel 00:00:00 11
1457 Weertjes 00:00:00 5
1458 Fientje63 00:00:00 4
1459 De meulentjes 00:00:00 7
1460 James Blond 00:00:00 12
1461 Blackies 00:00:00 6
1462 Orakel 00:00:00 6
1463 Rotterdammers 00:00:00 8
1464 De Gerrits 00:00:00 6
1465 MasterTeam 00:00:00 3
1466 NiLiMiNiLiMi 00:00:00 10
1467 Texeltje 00:00:00 7
1468 de dordtsche schappenkoppen 00:00:00 4
1469 team sylvester 00:00:00 3
1470 De wessels 00:00:00 10
1471 Levi van kuijk 00:00:00 4
1472 Ijsvogel265 00:00:00 9
1473 Eaca 00:00:00 7
1474 De Woutertjes 00:00:00 6
1475 FjFj 00:00:00 9
1476 Team Kops 00:00:00 9
1477 De Smitties 00:00:00 2
1478 Oelewappers 00:00:00 5
1479 Wiebeltenen 00:00:00 7
1480 Huisje59 00:00:00 2
1481 Geheime agenten 00:00:00 4
1482 Bitches 00:00:00 3
1483 De kolkies 00:00:00 8
1484 Varkenssanne 00:00:00 1
1485 RabbitHillJM 00:00:00 3
1486 Bouman 00:00:00 9
1487 De kleine leeuwtjes 00:00:00 8
1488 Iepies 00:00:00 8
1489 Camping 00:00:00 6
1490 Patatje 00:00:00 2
1491 Sander en Nienke 00:00:00 10
1492 FamilyM 00:00:00 5
1493 Team Kuipers 00:00:00 11
1494 Wietsmokertje 00:00:00 8
1495 Brinknorg 00:00:00 5
1496 Netzogek 00:00:00 8
1497 Stumpers 00:00:00 5
1498 Craats 00:00:00 8
1499 The Bossies 00:00:00 11
1500 Pijffers 00:00:00 5
1501 Wellmansjes 00:00:00 12
1502 De Dombo,s 00:00:00 2
1503 De amigo's 00:00:00 5
1504 Zusjes Huizer 00:00:00 6
1505 Arie 00:00:00 8
1506 De Melkjes 00:00:00 1
1507 DJ Swiep 00:00:00 5
1508 MVV Bro 00:00:00 10
1509 De boompjes 00:00:00 12
1510 Team MARIJEE050 00:00:00 6
1511 Slimpe 00:00:00 10
1512 Rotterdam 00:00:00 5
1513 Spelletjesgekken 00:00:00 1
1514 Lely Astronaut 00:00:00 0
1515 K3 00:00:00 8
1516 Swennies 00:00:00 8
1517 Duutshoffies 00:00:00 3
1518 Planet rose 00:00:00 7
1519 Pasenclub2021 00:00:00 9
1520 De Rakkers 00:00:00 6
1521 605 00:00:00 12
1522 GruitBlom176 00:00:00 12
1523 stevens 00:00:00 6
1524 Detectives Maij 00:00:00 7
1525 Strampel 00:00:00 7
1526 Landal 00:00:00 12
1527 Schmitties 00:00:00 6
1528 De Bommeltjes 00:00:00 6
1529 Stoffels 00:00:00 6
1530 Pepsi 00:00:00 12
1531 Auke 00:00:00 2
1532 De Abcouboys and girls 00:00:00 11
1533 Balzak 00:00:00 4
1534 Blieje mollies 00:00:00 11
1535 Jokers 00:00:00 6
1536 Koolmeesjes 00:00:00 11
1537 De Vries 329 00:00:00 11
1538 Pino’s 00:00:00 7
1539 Ninjago 00:00:00 11
1540 Boskampies 00:00:00 11
1541 Floortjes4 00:00:00 11
1542 Van Dalen 00:00:00 6
1543 Lovebirds 00:00:00 11
1544 KelDar 00:00:00 4
1545 Badertjes 00:00:00 9
1546 Brak 00:00:00 4
1547 Loenatiks 00:00:00 4
1548 Lenieminie 00:00:00 11
1549 Eisma 00:00:00 11
1550 Vennik 00:00:00 2
1551 Beerze! 00:00:00 7
1552 Bartels1 00:00:00 0
1553 De bootjes 00:00:00 6
1554 Girlpower 00:00:00 3
1555 Bartels 00:00:00 2
1556 Portugaaltjes 00:00:00 5
1557 De 9 musketiers 00:00:00 6
1558 Lol 00:00:00 3
1559 Winterjes 00:00:00 6
1560 De beugels 00:00:00 5
1561 Neomi+2 00:00:00 12
1562 Minkeisjarig 00:00:00 1
1563 De Plattelandjes 00:00:00 8
1564 ToNi 00:00:00 4
1565 Fromthemountain 00:00:00 2
1566 Fryslân Boppe 00:00:00 8
1567 De-kiddo’s. 00:00:00 9
1568 Team Smeets 00:00:00 7
1569 vliegende bergjes 00:00:00 12
1570 Pro's 00:00:00 3
1571 Dubbel D 00:00:00 0
1572 Hangover 4 00:00:00 3
1573 Het blauwe leger ESD 00:00:00 4
1574 Skippy 00:00:00 1
1575 Frank 00:00:00 6
1576 Hollandscheveld 00:00:00 5
1577 Korenhaan079 00:00:00 12
1578 Stromannetjes 00:00:00 9
1579 Jonkhof 00:00:00 8
1580 delangetjes 00:00:00 9
1581 Mammie 00:00:00 12
1582 De krakers 00:00:00 10
1583 De gangster kikkers 00:00:00 3
1584 TheMoos 00:00:00 9
1585 Eijkjes 00:00:00 9
1586 Goof&Co 00:00:00 3
1587 Hatseflays 00:00:00 12
1588 Casa Gluteus Maximus 00:00:00 1
1589 Odd squad 00:00:00 9
1590 Bussink Power 00:00:00 4
1591 Wij laten ons niet kisten 00:00:00 1
1592 De Ontdekkers 00:00:00 6
1593 Meivakantie 00:00:00 6
1594 noegie noegie 00:00:00 11
1595 The beagles 00:00:00 1
1596 Huisjes 00:00:00 7
1597 Bovengemiddeld 00:00:00 7
1598 Wouterse 00:00:00 8
1599 de Berkelaars 00:00:00 5
1600 spek en bonen 00:00:00 8
1601 De lemelaars 00:00:00 6
1602 De Buutsies 00:00:00 3
1603 BB33 00:00:00 0
1604 Smitoverweghekmanpas 00:00:00 1
1605 Team Sammie 00:00:00 3
1606 The Black purrrrr 00:00:00 4
1607 de Kwartels 00:00:00 1
1608 Roelofsen&co 00:00:00 0
1609 TiSu 00:00:00 3
1610 Bar & Jenn 00:00:00 8
1611 JessTho 00:00:00 2
1612 Wolfslag 00:00:00 12
1613 Kleef 00:00:00 7
1614 't Zwarte Geld 00:00:00 2
1615 Lurkies 00:00:00 5
1616 Atz32 00:00:00 8
1617 FLOVAR 00:00:00 5
1618 LPower 00:00:00 11
1619 Kooitjes 00:00:00 4
1620 SuperSanne 00:00:00 7
1621 F 00:00:00 10
1622 De Ruchti's 00:00:00 6
1623 Rolf 00:00:00 10
1624 Sander AnneMarie 00:00:00 9
1625 VeenBoer 00:00:00 9
1626 Roel&Irma 00:00:00 3
1627 8 BALL 00:00:00 6
1628 Jo 00:00:00 3
1629 Team sombrero bos hé 00:00:00 5
1630 Unlock 00:00:00 2
1631 Malaga 00:00:00 2
1632 De Ijsvogels 00:00:00 9
1633 Om dat het kan 00:00:00 6
1634 Dat was de wasmachine 00:00:00 12
1635 Anja Horster 00:00:00 3
1636 Bende van 4 00:00:00 7
1637 Josefien10 00:00:00 1
1638 Familie Betting 00:00:00 4
1639 Kip 00:00:00 7
1640 Dirven 00:00:00 5
1641 Familie ratjetoe 00:00:00 7
1642 Team-o 00:00:00 1
1643 42 00:00:00 10
1644 Goudou 00:00:00 4
1645 Dejo777 00:00:00 6
1646 LENNIPS 00:00:00 12
1647 De gekste 00:00:00 5
1648 Kanters 00:00:00 1
1649 Partyanimals 00:00:00 0
1650 IJff-power 00:00:00 8
1651 Biggies 00:00:00 2
1652 Zinger-Reiber 00:00:00 9
1653 Hazen & Wezels 00:00:00 3
1654 Mulhag 00:00:00 10
1655 Police Stars 00:00:00 5
1656 GOONIENEE 00:00:00 4
1657 De Hammies 00:00:00 7
1658 Bosaventuriers 00:00:00 12
1659 De emmy's 00:00:00 8
1660 FriteRia 00:00:00 0
1661 Ken je dat niet horen dan? 00:00:00 2
1662 Loedermoeders 00:00:00 6
1663 Huiskampies 00:00:00 2
1664 Duikbrillenclub 00:00:00 8
1665 De Boompjes 00:00:00 0
1666 Bastiaansen 00:00:00 6
1667 De Ra BN ers 00:00:00 3
1668 Koele Kikkers 00:00:00 11
1669 Brabo's 00:00:00 10
1670 Ruizendaal 00:00:00 5
1671 De eendjes 00:00:00 5
1672 De Satisfyers 00:00:00 7
1673 Tabarelli4 00:00:00 2
1674 De Minnetjes 00:00:00 3
1675 208 00:00:00 5
1676 Luclynnisa 00:00:00 12
1677 Sevens 00:00:00 12
1678 Krukken 00:00:00 9
1679 Team Gijs 00:00:00 10
1680 vdboogaart_heeze 00:00:00 2
1681 Bakker 00:00:00 8
1682 hazelaar 00:00:00 8
1683 Anatoliy 00:00:00 4
1684 Blommetjes 00:00:00 5
1685 Koopman 00:00:00 8
1686 Nijmodijk 00:00:00 9
1687 Team Lucas 00:00:00 3
1688 De Tuintjes 00:00:00 5
1689 Tijmboektoe 00:00:00 0
1690 De 713-tjee 00:00:00 0
1691 The Ozzies 00:00:00 8
1692 Kroeze 00:00:00 2
1693 De stolkse boertjes 00:00:00 4
1694 Monnickendammers 00:00:00 8
1695 De Super Pika’s 00:00:00 9
1696 Werffie's 00:00:00 4
1697 CasperDekkers! 00:00:00 7
1698 Team Sneek 00:00:00 6
1699 De-Bingo-Winners 00:00:00 7
1700 Spijker6 00:00:00 8
1701 Plantebakjes 00:00:00 0
1702 De Coole Kippen 00:00:00 4
1703 Jaapenlusanne 00:00:00 10
1704 Jagt 00:00:00 4
1705 Haaybaaitjes 00:00:00 10
1706 Fisy 00:00:00 9
1707 Meijer 00:00:00 0
1708 Gezelligheid op Coldenhove 00:00:00 9
1709 Mystery M’s 00:00:00 8
1710 Yeah 00:00:00 11
1711 Schreursjes 00:00:00 12
1712 De Bolle Bollo’s 00:00:00 5
1713 MoBaInRu 00:00:00 3
1714 Seob 00:00:00 1
1715 Stefan en Jogé 00:00:00 10
1716 De Ademaatjes 00:00:00 11
1717 LiFloSaMen 00:00:00 12
1718 Schneidertjes 00:00:00 0
1719 Nummer 73 00:00:00 4
1720 Snepvangers 00:00:00 9
1721 Groos 00:00:00 10
1722 MM2 00:00:00 8
1723 Kechies 00:00:00 0
1724 VanAken 00:00:00 7
1725 Wouters 00:00:00 2
1726 Team VM 00:00:00 12
1727 veenvell 00:00:00 3
1728 Veenvell 00:00:00 11
1729 Captain SpackJarrow 00:00:00 6
1730 00:00:00 10
1731 de bende van ellende 00:00:00 12
1732 Detective Nicholls 00:00:00 9
1733 Aardbeien 00:00:00 4
1734 Amsterdam West 00:00:00 10
1735 kabouters 00:00:00 10
1736 Team van Muijen 00:00:00 8